Hourly Data Report for October 19, 2015

All times are specified in Local Standard Time (LST). Add 1 hour to adjust for Daylight Saving Time where and when it is observed.

OTTAWA INTL A
ONTARIO

45°19'00.000" N
75°40'00.000" W
114.90 m
6106001
71628
YOW

Download Data

Hourly Data (October 2015)
Hourly Data Report for October 19, 2015
Temp Definition
°C
Dew Point Temp Definition
°C
Rel Hum Definition
%
Wind Dir Definition
10's deg

Wind Spd Definition
km/h
Visibility Definition
km
Stn Press Definition
kPa
Hmdx Definition


Wind Chill Definition


Weather Definition


TIME
00:00 Legend Double Dagger -4.3 -7.6 78 24 6 24.1 101.56   -7 LegendNANA
01:00 Legend Double Dagger -6.0 -8.1 85 23 4 24.1 101.57   -8 Clear
02:00 Legend Double Dagger -6.7 -8.7 86 22 5 24.1 101.54   -9 LegendNANA
03:00 Legend Double Dagger -6.8 -8.8 86 20 7 24.1 101.52   -10 LegendNANA
04:00 Legend Double Dagger -7.6 -9.3 88 19 6 24.1 101.56   -11 Clear
05:00 Legend Double Dagger -5.8 -8.2 83 19 8 24.1 101.57   -10 LegendNANA
06:00 Legend Double Dagger -5.8 -8.1 84 18 7 24.1 101.54   -9 LegendNANA
07:00 Legend Double Dagger -4.9 -8.0 79 17 7 24.1 101.51   -8 Mainly Clear
08:00 Legend Double Dagger -1.9 -5.9 74 19 11 24.1 101.48   -6 LegendNANA
09:00 Legend Double Dagger 0.6 -6.1 61 19 19 24.1 101.36     LegendNANA
10:00 Legend Double Dagger 3.4 -4.3 57 20 18 24.1 101.25     Mainly Clear
11:00 Legend Double Dagger 4.0 -4.5 54 20 23 24.1 101.11     LegendNANA
12:00 Legend Double Dagger 5.8 -3.0 53 18 23 24.1 100.92     LegendNANA
13:00 Legend Double Dagger 6.7 -1.5 56 20 24 24.1 100.78     Mostly Cloudy
14:00 Legend Double Dagger 7.4 0.6 62 21 20 24.1 100.66     LegendNANA
15:00 Legend Double Dagger 5.6 3.1 84 19 19 24.1 100.46     Rain
16:00 Legend Double Dagger 5.5 2.7 82 18 26 24.1 100.17     Rain
17:00 Legend Double Dagger 5.6 3.0 83 19 12 24.1 100.21     LegendNANA
18:00 Legend Double Dagger 5.8 3.0 82 19 6 24.1 100.19     LegendNANA
19:00 Legend Double Dagger 5.3 3.0 85 14 5 24.1 100.15     Cloudy
20:00 Legend Double Dagger 5.7 3.1 83 18 5 24.1 100.07     LegendNANA
21:00 Legend Double Dagger 6.5 2.8 77 20 10 24.1 99.98     LegendNANA
22:00 Legend Double Dagger 8.0 2.9 70 21 17 24.1 99.91     Mostly Cloudy
23:00 Legend Double Dagger 9.8 4.0 67 21 19 24.1 99.88     LegendNANA

Notes on Data Quality.

Legend

  • E = Estimated
  • M = Missing
  • NA = Not Available
  • ‡ = Partner data that is not subject to review by the National Climate Archives
Date modified: